| time (UTC) | temp F | wind direction | speed knots | gust knots | rain 1hr in | rain 24hr in | rain mn in | humidity % | barometer mb |
| 20260505064322 | 65 | 202 | 2.6 | 12.2 | 0.00 | 0.00 | 0.00 | 77 | 1008.6 |
| 20260505063820 | 65 | 167 | 5.2 | 7.8 | 0.00 | 0.00 | 0.00 | 77 | 1008.8 |
| 20260505063316 | 65 | 148 | 3.5 | 10.4 | 0.00 | 0.00 | 0.00 | 76 | 1008.6 |
| 20260505062812 | 65 | 154 | 2.6 | 7.0 | 0.00 | 0.00 | 0.00 | 75 | 1008.8 |
| 20260505062310 | 65 | 161 | 8.7 | 12.2 | 0.00 | 0.00 | 0.00 | 75 | 1008.9 |
| 20260505061806 | 65 | 156 | 4.3 | 7.8 | 0.00 | 0.00 | 0.00 | 75 | 1008.8 |
| 20260505061305 | 65 | 170 | 4.3 | 13.0 | 0.00 | 0.00 | 0.00 | 74 | 1008.8 |
| 20260505060802 | 65 | 163 | 4.3 | 10.4 | 0.00 | 0.00 | 0.00 | 74 | 1009.0 |
| 20260505060259 | 65 | 192 | 5.2 | 8.7 | 0.00 | 0.00 | 0.00 | 74 | 1009.2 |
| 20260505055754 | 65 | 161 | 4.3 | 7.8 | 0.00 | 0.00 | 0.00 | 74 | 1009.4 |
| 20260505055251 | 65 | 155 | 2.6 | 6.1 | 0.00 | 0.00 | 0.00 | 74 | 1009.5 |
| 20260505054748 | 65 | 146 | 3.5 | 9.6 | 0.00 | 0.00 | 0.00 | 73 | 1009.4 |
| 20260505054246 | 65 | 196 | 1.7 | 4.3 | 0.00 | 0.00 | 0.00 | 74 | 1009.3 |
| 20260505053744 | 65 | 151 | 0.9 | 6.1 | 0.00 | 0.00 | 0.00 | 73 | 1009.4 |
| 20260505053240 | 65 | 162 | 3.5 | 6.1 | 0.00 | 0.00 | 0.00 | 74 | 1009.4 |
| 20260505052737 | 64 | 208 | 1.7 | 8.7 | 0.00 | 0.00 | 0.00 | 73 | 1009.3 |
| 20260505052234 | 64 | 166 | 1.7 | 4.3 | 0.00 | 0.00 | 0.00 | 74 | 1009.3 |
| 20260505051731 | 64 | 164 | 1.7 | 5.2 | 0.00 | 0.00 | 0.00 | 75 | 1009.2 |
| 20260505051229 | 64 | 128 | 2.6 | 4.3 | 0.00 | 0.00 | 0.00 | 75 | 1009.5 |
| 20260505050727 | 64 | 82 | 0.9 | 2.6 | 0.00 | 0.00 | 0.00 | 75 | 1009.5 |
| 20260505050225 | 64 | 101 | 0.9 | 2.6 | 0.00 | 0.00 | 0.00 | 74 | 1009.6 |
| 20260505041654 | 65 | 173 | 1.7 | 4.3 | 0.00 | 0.00 | 0.00 | 74 | 1009.6 |
| 20260505041152 | 64 | 188 | 1.7 | 3.5 | 0.00 | 0.00 | 0.00 | 76 | 1009.4 |
| 20260505040649 | 64 | 187 | 1.7 | 2.6 | 0.00 | 0.00 | 0.00 | 76 | 1009.9 |
| 20260505040146 | 64 | 180 | 1.7 | 1.7 | 0.00 | 0.00 | 0.00 | 76 | 1009.9 |
| 20260505035642 | 65 | 174 | 0.9 | 1.7 | 0.00 | 0.00 | 0.00 | 75 | 1009.8 |
| 20260505035139 | 65 | 159 | 2.6 | 3.5 | 0.00 | 0.00 | 0.00 | 75 | 1009.6 |
| 20260505034635 | 64 | 144 | 3.5 | 4.3 | 0.00 | 0.00 | 0.00 | 77 | 1009.8 |
| 20260505034133 | 64 | 141 | 0.0 | 1.7 | 0.00 | 0.00 | 0.00 | 77 | 1009.8 |
| 20260505033629 | 64 | 135 | 0.0 | 1.7 | 0.00 | 0.00 | 0.00 | 77 | 1009.8 |
| 20260505033127 | 64 | 186 | 0.0 | 2.6 | 0.00 | 0.00 | 0.00 | 76 | 1010.0 |
| 20260505032625 | 64 | 50 | 0.0 | 2.6 | 0.00 | 0.00 | 0.00 | 76 | 1009.8 |
| 20260505032121 | 65 | 150 | 0.0 | 1.7 | 0.00 | 0.00 | 0.00 | 75 | 1009.7 |
| 20260505031619 | 65 | 142 | 0.9 | 1.7 | 0.00 | 0.00 | 0.00 | 74 | 1009.9 |
| 20260505031114 | 66 | 112 | 0.9 | 2.6 | 0.00 | 0.00 | 0.00 | 74 | 1009.8 |
| 20260505030611 | 66 | 167 | 1.7 | 4.3 | 0.00 | 0.00 | 0.00 | 73 | 1009.6 |
| 20260505030107 | 66 | 173 | 0.0 | 6.1 | 0.00 | 0.00 | 0.00 | 74 | 1009.6 |
| 20260505025603 | 66 | 212 | 0.0 | 2.6 | 0.00 | 0.00 | 0.00 | 74 | 1009.5 |
| 20260505025057 | 66 | 142 | 0.0 | 3.5 | 0.00 | 0.00 | 0.00 | 73 | 1009.6 |
| 20260505024554 | 67 | 152 | 1.7 | 3.5 | 0.00 | 0.00 | 0.00 | 72 | 1009.3 |
| 20260505024051 | 67 | 144 | 2.6 | 3.5 | 0.00 | 0.00 | 0.00 | 71 | 1009.4 |
| 20260505023548 | 67 | 169 | 3.5 | 4.3 | 0.00 | 0.00 | 0.00 | 70 | 1009.3 |
| 20260505023045 | 67 | 172 | 1.7 | 4.3 | 0.00 | 0.00 | 0.00 | 70 | 1009.2 |
| 20260505022543 | 67 | 162 | 3.5 | 3.5 | 0.00 | 0.00 | 0.00 | 71 | 1009.2 |
| 20260505022040 | 67 | 163 | 1.7 | 2.6 | 0.00 | 0.00 | 0.00 | 71 | 1009.2 |
| 20260505021536 | 67 | 133 | 1.7 | 2.6 | 0.00 | 0.00 | 0.00 | 70 | 1009.2 |
| 20260505021033 | 68 | 105 | 0.0 | 3.5 | 0.00 | 0.00 | 0.00 | 70 | 1009.1 |
| 20260505020532 | 68 | 124 | 1.7 | 2.6 | 0.00 | 0.00 | 0.00 | 70 | 1009.0 |
| 20260505020030 | 68 | 148 | 0.0 | 3.5 | 0.00 | 0.00 | 0.00 | 69 | 1009.1 |
| 20260505015527 | 68 | 153 | 1.7 | 2.6 | 0.00 | 0.00 | 0.00 | 68 | 1009.1 |
| 20260505015024 | 69 | 147 | 1.7 | 3.5 | 0.00 | 0.00 | 0.00 | 68 | 1009.2 |
| 20260505014520 | 69 | 157 | 2.6 | 4.3 | 0.00 | 0.00 | 0.00 | 68 | 1009.4 |
| 20260505014018 | 69 | 172 | 2.6 | 4.3 | 0.00 | 0.00 | 0.00 | 68 | 1009.1 |
| 20260505013515 | 69 | 156 | 1.7 | 5.2 | 0.00 | 0.00 | 0.00 | 68 | 1009.1 |
| 20260505013012 | 69 | 155 | 1.7 | 4.3 | 0.00 | 0.00 | 0.00 | 67 | 1008.9 |
| 20260505012510 | 70 | 130 | 0.0 | 3.5 | 0.00 | 0.00 | 0.00 | 67 | 1008.8 |
| 20260505012007 | 70 | 150 | 1.7 | 4.3 | 0.00 | 0.00 | 0.00 | 68 | 1008.8 |
| 20260505011502 | 70 | 170 | 1.7 | 4.3 | 0.00 | 0.00 | 0.00 | 67 | 1008.8 |
| 20260505011000 | 70 | 161 | 2.6 | 4.3 | 0.00 | 0.00 | 0.00 | 66 | 1008.6 |
| 20260505010455 | 70 | 147 | 2.6 | 3.5 | 0.00 | 0.00 | 0.00 | 66 | 1008.7 |
| 20260505005951 | 71 | 145 | 1.7 | 4.3 | 0.00 | 0.00 | 0.00 | 66 | 1008.6 |
| 20260505005448 | 71 | 148 | 1.7 | 2.6 | 0.00 | 0.00 | 0.00 | 65 | 1008.6 |
| 20260505004946 | 71 | 151 | 1.7 | 4.3 | 0.00 | 0.00 | 0.00 | 64 | 1008.6 |
| 20260505004443 | 72 | 165 | 3.5 | 4.3 | 0.00 | 0.00 | 0.00 | 63 | 1008.9 |
| 20260505003940 | 72 | 162 | 2.6 | 4.3 | 0.00 | 0.00 | 0.00 | 62 | 1008.8 |
| 20260505003437 | 73 | 143 | 2.6 | 4.3 | 0.00 | 0.00 | 0.00 | 62 | 1008.9 |
| 20260505002933 | 73 | 173 | 2.6 | 3.5 | 0.00 | 0.00 | 0.00 | 61 | 1008.8 |
| 20260505002429 | 73 | 155 | 2.6 | 3.5 | 0.00 | 0.00 | 0.00 | 61 | 1008.7 |
| 20260505001928 | 73 | 165 | 1.7 | 2.6 | 0.00 | 0.00 | 0.00 | 60 | 1009.0 |
| 20260505001425 | 74 | 194 | 1.7 | 4.3 | 0.00 | 0.00 | 0.00 | 59 | 1008.9 |
| 20260505000922 | 74 | 180 | 1.7 | 5.2 | 0.00 | 0.00 | 0.00 | 58 | 1008.9 |
| 20260505000420 | 74 | 190 | 1.7 | 7.0 | 0.00 | 0.00 | 0.00 | 58 | 1008.8 |
| 20260504235916 | 74 | 174 | 4.3 | 6.1 | 0.00 | 0.00 | 0.00 | 57 | 1009.0 |
| 20260504235408 | 75 | 205 | 4.3 | 7.0 | 0.00 | 0.00 | 0.00 | 56 | 1008.8 |
| 20260504234904 | 75 | 196 | 4.3 | 7.8 | 0.00 | 0.00 | 0.00 | 55 | 1009.0 |
| 20260504234402 | 75 | 204 | 3.5 | 5.2 | 0.00 | 0.00 | 0.00 | 56 | 1009.0 |
| 20260504233858 | 75 | 197 | 6.1 | 8.7 | 0.00 | 0.00 | 0.00 | 55 | 1009.0 |
| 20260504233354 | 75 | 198 | 6.1 | 9.6 | 0.00 | 0.00 | 0.00 | 54 | 1009.1 |
| 20260504232850 | 75 | 152 | 3.5 | 7.8 | 0.00 | 0.00 | 0.00 | 54 | 1009.1 |
| 20260504232348 | 76 | 157 | 7.8 | 10.4 | 0.00 | 0.00 | 0.00 | 53 | 1009.0 |
| 20260504231844 | 76 | 205 | 5.2 | 9.6 | 0.00 | 0.00 | 0.00 | 53 | 1009.4 |
| 20260504231341 | 76 | 201 | 4.3 | 7.8 | 0.00 | 0.00 | 0.00 | 54 | 1009.3 |
| 20260504230837 | 77 | 223 | 3.5 | 4.3 | 0.00 | 0.00 | 0.00 | 54 | 1009.3 |
| 20260504230335 | 76 | 214 | 2.6 | 6.1 | 0.00 | 0.00 | 0.00 | 54 | 1009.5 |
| 20260504225834 | 77 | 152 | 3.5 | 5.2 | 0.00 | 0.00 | 0.00 | 53 | 1009.5 |
| 20260504225330 | 77 | 197 | 3.5 | 6.1 | 0.00 | 0.00 | 0.00 | 53 | 1009.9 |
| 20260504224827 | 77 | 188 | 3.5 | 14.8 | 0.00 | 0.00 | 0.00 | 52 | 1009.6 |
| 20260504224324 | 78 | 197 | 4.3 | 9.6 | 0.00 | 0.00 | 0.00 | 52 | 1009.7 |
| 20260504223821 | 78 | 210 | 1.7 | 8.7 | 0.00 | 0.00 | 0.00 | 53 | 1009.8 |
| 20260504223316 | 78 | 192 | 3.5 | 9.6 | 0.00 | 0.00 | 0.00 | 51 | 1009.6 |
| 20260504222813 | 78 | 224 | 3.5 | 9.6 | 0.00 | 0.00 | 0.00 | 52 | 1009.6 |
| 20260504222310 | 78 | 180 | 2.6 | 7.0 | 0.00 | 0.00 | 0.00 | 52 | 1009.8 |
| 20260504221809 | 78 | 185 | 3.5 | 5.2 | 0.00 | 0.00 | 0.00 | 52 | 1009.7 |
| 20260504221305 | 78 | 203 | 3.5 | 8.7 | 0.00 | 0.00 | 0.00 | 52 | 1009.9 |
| 20260504220802 | 77 | 269 | 2.6 | 12.2 | 0.00 | 0.00 | 0.00 | 51 | 1009.9 |
| 20260504220258 | 77 | 206 | 4.3 | 14.8 | 0.00 | 0.00 | 0.00 | 51 | 1009.9 |
| 20260504215756 | 77 | 198 | 9.6 | 11.3 | 0.00 | 0.00 | 0.00 | 50 | 1009.9 |
| 20260504215251 | 78 | 216 | 4.3 | 15.6 | 0.00 | 0.00 | 0.00 | 52 | 1010.1 |
| 20260504214747 | 78 | 208 | 2.6 | 8.7 | 0.00 | 0.00 | 0.00 | 50 | 1010.2 |
| 20260504214244 | 79 | 254 | 2.6 | 4.3 | 0.00 | 0.00 | 0.00 | 49 | 1010.3 |
| 20260504213742 | 78 | 224 | 4.3 | 7.0 | 0.00 | 0.00 | 0.00 | 50 | 1010.1 |
| 20260504213238 | 78 | 252 | 2.6 | 12.2 | 0.00 | 0.00 | 0.00 | 49 | 1010.1 |
| 20260504212735 | 79 | 175 | 3.5 | 11.3 | 0.00 | 0.00 | 0.00 | 50 | 1010.3 |
| 20260504212232 | 79 | 240 | 2.6 | 6.1 | 0.00 | 0.00 | 0.00 | 47 | 1010.4 |
| 20260504211729 | 78 | 175 | 1.7 | 12.2 | 0.00 | 0.00 | 0.00 | 49 | 1010.2 |
| 20260504211225 | 78 | 196 | 7.8 | 9.6 | 0.00 | 0.00 | 0.00 | 48 | 1010.3 |
| 20260504210722 | 78 | 163 | 10.4 | 15.6 | 0.00 | 0.00 | 0.00 | 49 | 1010.5 |
| 20260504210214 | 78 | 201 | 4.3 | 14.8 | 0.00 | 0.00 | 0.00 | 48 | 1010.7 |
| 20260504205710 | 79 | 195 | 7.0 | 12.2 | 0.00 | 0.00 | 0.00 | 47 | 1010.7 |
| 20260504205207 | 78 | 202 | 8.7 | 12.2 | 0.00 | 0.00 | 0.00 | 48 | 1010.8 |
| 20260504204701 | 79 | 263 | 5.2 | 9.6 | 0.00 | 0.00 | 0.00 | 47 | 1010.8 |
| 20260504204159 | 79 | 213 | 7.8 | 13.0 | 0.00 | 0.00 | 0.00 | 48 | 1011.0 |
| 20260504203657 | 79 | 227 | 3.5 | 9.6 | 0.00 | 0.00 | 0.00 | 48 | 1010.9 |
| 20260504203154 | 78 | 195 | 5.2 | 13.0 | 0.00 | 0.00 | 0.00 | 49 | 1011.1 |
| 20260504202649 | 78 | 224 | 2.6 | 13.0 | 0.00 | 0.00 | 0.00 | 50 | 1011.2 |
| 20260504202146 | 78 | 190 | 4.3 | 15.6 | 0.00 | 0.00 | 0.00 | 49 | 1011.5 |
| 20260504201643 | 79 | 195 | 7.8 | 15.6 | 0.00 | 0.00 | 0.00 | 48 | 1011.4 |
| 20260504201141 | 79 | 219 | 4.3 | 11.3 | 0.00 | 0.00 | 0.00 | 49 | 1011.4 |
| 20260504200638 | 78 | 180 | 3.5 | 12.2 | 0.00 | 0.00 | 0.00 | 48 | 1011.6 |
| 20260504200134 | 79 | 245 | 3.5 | 12.2 | 0.00 | 0.00 | 0.00 | 48 | 1011.7 |
| 20260504195630 | 79 | 277 | 3.5 | 12.2 | 0.00 | 0.00 | 0.00 | 48 | 1011.8 |
| 20260504195127 | 79 | 214 | 3.5 | 7.8 | 0.00 | 0.00 | 0.00 | 48 | 1012.0 |
| 20260504194624 | 78 | 238 | 6.1 | 11.3 | 0.00 | 0.00 | 0.00 | 48 | 1012.1 |
| 20260504194120 | 78 | 250 | 2.6 | 13.9 | 0.00 | 0.00 | 0.00 | 50 | 1011.9 |
| 20260504193616 | 77 | 241 | 4.3 | 8.7 | 0.00 | 0.00 | 0.00 | 49 | 1012.2 |
| 20260504193114 | 77 | 231 | 4.3 | 15.6 | 0.00 | 0.00 | 0.00 | 49 | 1012.1 |
| 20260504192612 | 77 | 186 | 4.3 | 11.3 | 0.00 | 0.00 | 0.00 | 50 | 1012.1 |
| 20260504192110 | 77 | 221 | 4.3 | 14.8 | 0.00 | 0.00 | 0.00 | 50 | 1012.5 |
| 20260504191608 | 77 | 225 | 2.6 | 7.0 | 0.00 | 0.00 | 0.00 | 52 | 1012.3 |
| 20260504191103 | 78 | 212 | 11.3 | 15.6 | 0.00 | 0.00 | 0.00 | 49 | 1012.4 |
| 20260504190600 | 77 | 207 | 3.5 | 11.3 | 0.00 | 0.00 | 0.00 | 50 | 1012.5 |
| 20260504190056 | 77 | 205 | 7.0 | 13.9 | 0.00 | 0.00 | 0.00 | 49 | 1012.6 |
| 20260504185553 | 77 | 189 | 6.1 | 16.5 | 0.00 | 0.00 | 0.00 | 48 | 1012.5 |
| 20260504185044 | 76 | 207 | 7.0 | 9.6 | 0.00 | 0.00 | 0.00 | 50 | 1012.5 |
| 20260504184540 | 77 | 172 | 4.3 | 13.9 | 0.00 | 0.00 | 0.00 | 51 | 1012.6 |
| 20260504184035 | 77 | 199 | 7.8 | 19.1 | 0.00 | 0.00 | 0.00 | 48 | 1012.9 |
| 20260504183533 | 77 | 194 | 4.3 | 10.4 | 0.00 | 0.00 | 0.00 | 50 | 1012.9 |
| 20260504183031 | 77 | 302 | 4.3 | 10.4 | 0.00 | 0.00 | 0.00 | 52 | 1012.8 |
| 20260504182527 | 77 | 192 | 13.0 | 13.0 | 0.00 | 0.00 | 0.00 | 51 | 1012.9 |
| 20260504182025 | 77 | 208 | 7.8 | 8.7 | 0.00 | 0.00 | 0.00 | 52 | 1012.9 |
| 20260504181522 | 76 | 213 | 4.3 | 8.7 | 0.00 | 0.00 | 0.00 | 48 | 1013.1 |
| 20260504181020 | 77 | 246 | 5.2 | 12.2 | 0.00 | 0.00 | 0.00 | 48 | 1013.1 |
| 20260504180519 | 76 | 197 | 6.1 | 13.9 | 0.00 | 0.00 | 0.00 | 50 | 1013.1 |
| 20260504180017 | 77 | 198 | 3.5 | 9.6 | 0.00 | 0.00 | 0.00 | 52 | 1013.3 |
| 20260504175514 | 76 | 225 | 1.7 | 11.3 | 0.00 | 0.00 | 0.00 | 55 | 1013.4 |
| 20260504175011 | 76 | 199 | 7.8 | 15.6 | 0.00 | 0.00 | 0.00 | 53 | 1013.3 |
| 20260504174509 | 76 | 247 | 1.7 | 9.6 | 0.00 | 0.00 | 0.00 | 50 | 1013.5 |
| 20260504174005 | 76 | 261 | 2.6 | 10.4 | 0.00 | 0.00 | 0.00 | 50 | 1013.7 |
| 20260504173502 | 76 | 241 | 4.3 | 10.4 | 0.00 | 0.00 | 0.00 | 53 | 1013.6 |
| 20260504173000 | 76 | 202 | 6.1 | 11.3 | 0.00 | 0.00 | 0.00 | 54 | 1013.7 |
| 20260504172455 | 76 | 227 | 4.3 | 7.8 | 0.00 | 0.00 | 0.00 | 50 | 1013.7 |
| 20260504171952 | 75 | 198 | 9.6 | 13.9 | 0.00 | 0.00 | 0.00 | 51 | 1013.8 |
| 20260504171449 | 75 | 250 | 4.3 | 11.3 | 0.00 | 0.00 | 0.00 | 53 | 1013.8 |
| 20260504170946 | 75 | 185 | 8.7 | 10.4 | 0.00 | 0.00 | 0.00 | 51 | 1014.1 |
| 20260504170442 | 76 | 227 | 2.6 | 7.8 | 0.00 | 0.00 | 0.00 | 51 | 1013.8 |
| 20260504160402 | 72 | 233 | 2.6 | 7.8 | 0.00 | 0.00 | 0.00 | 58 | 1014.9 |
| 20260504150826 | 70 | 216 | 1.7 | 6.1 | 0.00 | 0.00 | 0.00 | 64 | 1014.9 |
| 20260504150322 | 70 | 334 | 2.6 | 7.8 | 0.00 | 0.00 | 0.00 | 66 | 1014.7 |
| 20260504141253 | 66 | 228 | 2.6 | 4.3 | 0.00 | 0.00 | 0.00 | 72 | 1014.9 |
| 20260504140749 | 66 | 180 | 1.7 | 13.0 | 0.00 | 0.00 | 0.00 | 73 | 1015.1 |
| 20260504140245 | 66 | 258 | 2.6 | 7.8 | 0.00 | 0.00 | 0.00 | 74 | 1015.2 |
| 20260504130714 | 59 | 196 | 2.6 | 6.1 | 0.00 | 0.00 | 0.00 | 86 | 1014.9 |
| 20260504130209 | 59 | 174 | 2.6 | 6.1 | 0.00 | 0.00 | 0.00 | 87 | 1015.1 |
| 20260504120133 | 54 | 39 | 0.0 | 1.7 | 0.00 | 0.00 | 0.00 | 93 | 1014.5 |
| 20260504110601 | 53 | 126 | 0.0 | 3.5 | 0.00 | 0.00 | 0.00 | 95 | 1014.0 |
| 20260504100517 | 53 | 66 | 0.0 | 1.7 | 0.00 | 0.00 | 0.00 | 96 | 1014.5 |
| 20260504081910 | 55 | 76 | 0.0 | 1.7 | 0.00 | 0.00 | 0.00 | 90 | 1014.8 |
| 20260504081407 | 56 | 44 | 0.0 | 0.0 | 0.00 | 0.00 | 0.00 | 90 | 1014.5 |
| 20260504080903 | 56 | 89 | 0.0 | 0.9 | 0.00 | 0.00 | 0.00 | 89 | 1014.6 |
| 20260504080400 | 56 | 76 | 0.0 | 0.9 | 0.00 | 0.00 | 0.00 | 89 | 1014.9 |
| 20260504070327 | 57 | 34 | 0.0 | 0.9 | 0.00 | 0.00 | 0.00 | 86 | 1015.1 |